sat.trackr.live / text

‹ back to catalog

IRIDIUM 177

NORAD 56727 · 2023-068T

PAYLOAD ACTIVE UNKNOWN

§ Identity

Operator
Country
US
Launch date
2023-05-20
Launch site
AFWTR
Launch vehicle
Mass (kg)
RCS (m²)

Purposes: comms

External: N2YO · Heavens-Above · Gunter

§ Orbital elements

Epoch: 2026-09-19T19:20:41.050752Z

Period
97.48 min
Inclination
86.1918°
Eccentricity
0.0002568
Mean motion
14.77165876 rev/d
Perigee alt
636.5 km
Apogee alt
640.1 km
Semi-major
7,016.4 km
B*
3.4283e-5
RAAN
283.9051°
Arg perigee
90.3509°
Mean anomaly
269.8005°
Rev number
18,035

§ Raw data

IRIDIUM 1771 56727U 23068T   26262.80603068  .00000268  00000+0  34283-4 0  99942 56727  86.1918 283.9051 0002568  90.3509 269.8005 14.77165876180356

JSON: /api/v1/satellites/56727 · /tle

For live sub-satellite position, see the globe view (requires WebGL).

§ Visibility from observer

Set your observer location to see the next 7 days of passes ≥ 10°. The values pass through the URL so the page stays shareable.

No JS? Fill the form by hand. The geolocation button needs JavaScript.